TimeCDT,TemperatureF,Dew PointF,Humidity,Sea Level PressureIn,VisibilityMPH,Wind Direction,Wind SpeedMPH,Gust SpeedMPH,PrecipitationIn,Events,Conditions,WindDirDegrees,DateUTC
12:53 AM,64.0,62.1,93,30.16,4.0,Calm,Calm,-,N/A,,Clear,0,2012-10-13 05:53:00
1:53 AM,64.0,62.1,93,30.17,4.0,Calm,Calm,-,N/A,,Clear,0,2012-10-13 06:53:00
2:17 AM,62.6,62.6,100,30.19,2.0,Calm,Calm,-,N/A,,Clear,0,2012-10-13 07:17:00
2:28 AM,62.6,62.6,100,30.19,3.0,Calm,Calm,-,N/A,,Clear,0,2012-10-13 07:28:00
2:53 AM,63.0,61.0,93,30.17,2.5,Calm,Calm,-,N/A,,Clear,0,2012-10-13 07:53:00
3:41 AM,62.6,60.8,94,30.19,1.2,Calm,Calm,-,N/A,,Clear,0,2012-10-13 08:41:00
3:49 AM,62.6,60.8,94,30.19,0.5,Calm,Calm,-,N/A,Fog,Fog,0,2012-10-13 08:49:00
3:53 AM,62.1,61.0,96,30.17,0.8,Calm,Calm,-,N/A,,Clear,0,2012-10-13 08:53:00
3:58 AM,62.6,60.8,94,30.19,2.5,Calm,Calm,-,N/A,,Clear,0,2012-10-13 08:58:00
4:50 AM,62.6,60.8,94,30.20,3.0,Calm,Calm,-,N/A,,Clear,0,2012-10-13 09:50:00
4:53 AM,62.1,60.1,93,30.18,3.0,Calm,Calm,-,N/A,,Clear,0,2012-10-13 09:53:00
5:05 AM,60.8,59.0,94,30.20,1.5,Calm,Calm,-,N/A,,Clear,0,2012-10-13 10:05:00
5:27 AM,60.8,59.0,94,30.20,0.8,Calm,Calm,-,N/A,,Clear,0,2012-10-13 10:27:00
5:35 AM,60.8,59.0,94,30.21,2.0,Calm,Calm,-,N/A,,Clear,0,2012-10-13 10:35:00
5:53 AM,61.0,60.1,97,30.19,1.8,Calm,Calm,-,N/A,,Clear,0,2012-10-13 10:53:00
6:04 AM,60.8,59.0,94,30.21,3.0,Calm,Calm,-,N/A,,Clear,0,2012-10-13 11:04:00
6:17 AM,60.8,59.0,94,30.21,2.0,Calm,Calm,-,N/A,,Clear,0,2012-10-13 11:17:00
6:37 AM,60.8,60.8,100,30.21,3.0,Calm,Calm,-,N/A,,Clear,0,2012-10-13 11:37:00
6:53 AM,62.1,60.1,93,30.20,3.0,Calm,Calm,-,N/A,,Clear,0,2012-10-13 11:53:00
7:10 AM,60.8,59.0,94,30.22,2.0,Calm,Calm,-,N/A,,Clear,0,2012-10-13 12:10:00
7:31 AM,60.8,59.0,94,30.22,0.8,Calm,Calm,-,N/A,,Clear,0,2012-10-13 12:31:00
7:46 AM,60.8,60.8,100,30.22,2.0,Calm,Calm,-,N/A,,Clear,0,2012-10-13 12:46:00
7:53 AM,62.1,60.1,93,30.21,3.0,Calm,Calm,-,N/A,,Partly Cloudy,0,2012-10-13 12:53:00
8:53 AM,68.0,64.0,87,30.21,5.0,Calm,Calm,-,N/A,,Clear,0,2012-10-13 13:53:00
9:53 AM,73.9,64.0,71,30.22,10.0,SSE,6.9,-,N/A,,Clear,160,2012-10-13 14:53:00
10:53 AM,78.1,64.9,64,30.21,10.0,South,10.4,-,N/A,,Clear,170,2012-10-13 15:53:00
11:53 AM,81.0,59.0,47,30.19,10.0,South,12.7,18.4,N/A,,Clear,180,2012-10-13 16:53:00
1:53 PM,82.9,62.1,49,30.12,10.0,South,11.5,20.7,N/A,,Clear,170,2012-10-13 18:53:00
2:53 PM,84.0,64.0,51,30.09,10.0,South,9.2,18.4,N/A,,Clear,170,2012-10-13 19:53:00
3:53 PM,84.9,62.1,46,30.07,10.0,South,15.0,19.6,N/A,,Clear,180,2012-10-13 20:53:00
4:53 PM,82.9,60.1,46,30.06,10.0,South,13.8,20.7,N/A,,Clear,180,2012-10-13 21:53:00
5:53 PM,81.0,62.1,52,30.07,10.0,South,6.9,-,N/A,,Clear,180,2012-10-13 22:53:00
7:53 PM,72.0,63.0,73,30.08,10.0,SSE,4.6,-,N/A,,Clear,160,2012-10-14 00:53:00
9:53 PM,72.0,64.9,78,30.09,10.0,SSE,9.2,-,N/A,,Clear,150,2012-10-14 02:53:00
10:53 PM,72.0,66.0,81,30.09,10.0,South,10.4,-,N/A,,Clear,170,2012-10-14 03:53:00
11:53 PM,71.1,66.0,84,30.07,9.0,SSE,10.4,-,N/A,,Clear,160,2012-10-14 04:53:00